Regional Weather Roundup
Issued by NWS Kansas City/Pleasant Hill, MO

Home | Current Version | Previous Version | Graphics & Text | Print | Product List | Glossary Off
Versions: 1 2 3 4 5 6 7 8 9 10 11 12 13 14 15 16 17 18 19 20 21 22 23 24 25 26 27 28 29 30 31 32 33 34 35 36 37 38 39 40 41 42 43 44 45 46 47 48 49 50

000
ASUS43 KEAX 272104
RWREAX

WEATHER ROUNDUP FOR EASTERN KANSAS AND NORTHWEST MISSOURI
NATIONAL WEATHER SERVICE KANSAS CITY/PLEASANT HILL MO
400 PM CDT FRI MAR 27 2015

KSZ040-057-103>105-MOZ028-029-037-043-272200-
...KANSAS CITY METROPOLITAN AREA...

CITY           SKY/WX    TMP DP  RH WIND       PRES   REMARKS
K.C. INTL      CLOUDY    43  20  39 VRB6      30.15F
K.C. DOWNTOWN  SUNNY     46  17  31 CALM      30.16F
LEES SUMMIT    MOSUNNY   45  17  32 N8        30.16F
OLATHE - IXD   SUNNY     44  21  40 CALM      30.16F
OLATHE - OJC   SUNNY     44  19  36 VRB5      30.14F
LAWRENCE       MOSUNNY   45  17  32 NE5       30.16F

$$

MOZ001>008-011>017-020>025-030>033-038>040-044>046-053-054-272200-
...NORTHERN AND CENTRAL MISSOURI...

CITY           SKY/WX    TMP DP  RH WIND       PRES   REMARKS
ST. JOSEPH     SUNNY     43  18  36 VRB6      30.17F
MOSBY          CLEAR     41  16  36 NW7       30.17F
WARRENSBURG    SUNNY     43  18  36 NW7       30.17F
WHITEMAN AFB   NOT AVBL
CLINTON        SUNNY     45  23  42 N8        30.17F
SEDALIA        MOSUNNY   44  22  41 N10       30.17F
WARSAW         NOT AVBL
MARSHALL       SUNNY     45  23  42 W8        30.18F
CHILLICOTHE      N/A     43  18  36 CALM      30.18F
MOBERLY        SUNNY     45  16  31 N7        30.16F
KIRKSVILLE     SUNNY     42  14  32 VRB3      30.16F

$$

MOZ041-047>049-056>058-063>065-088>090-097-272200-
...EASTERN AND SOUTHERN MISSOURI...

CITY           SKY/WX    TMP DP  RH WIND       PRES   REMARKS
ST. LOUIS INTL PTSUNNY   43  20  39 NW10G20   30.16F
SPIRIT OF STL  PTSUNNY   41  18  39 W10       30.16F WCI  35
COLUMBIA       MOSUNNY   43  21  41 NW12      30.16F
JEFFERSON CITY PTSUNNY   44  18  35 N9        30.16F
MEXICO         PTSUNNY   43  25  49 NW8G17    30.16F
HANNIBAL       PTSUNNY   45  12  26 N7G21     30.16S
ROLLA          MOSUNNY   41  21  44 N13       30.13S WCI  34
LEBANON        SUNNY     45  21  39 N9        30.13F
OSAGE BEACH    PTSUNNY   43  19  39 N5        30.15F
SPRINGFIELD    MOSUNNY   46  22  38 N13G21    30.14F
BRANSON        PTSUNNY   45  23  42 NW12G20   30.15F
NEVADA         MOSUNNY   46  23  39 NW7       30.18F
JOPLIN         SUNNY     49  25  39 N12G17    30.16F
WEST PLAINS    PTSUNNY   46  23  40 NW8G18    30.12F

$$

IAZ060-094-KSZ022-034>040-054-083-096-NEZ052-066-093-272200-
...KANSAS...SOUTHEAST NEBRASKA AND IOWA...

CITY           SKY/WX    TMP DP  RH WIND       PRES   REMARKS
TOPEKA         MOSUNNY   44  16  32 VRB6      30.17F
MANHATTAN      CLOUDY    46  16  30 NE3       30.16F
EMPORIA        MOSUNNY   48  19  31 N8        30.15F
CHANUTE        SUNNY     50  23  34 NE6       30.16F
WICHITA        CLOUDY    50  28  42 VRB3      30.17F
OMAHA          CLOUDY    40  12  32 CALM      30.16F
LINCOLN        CLOUDY    40  18  41 W5        30.19S
FALLS CITY     CLOUDY    40  18  41 CALM      30.18S
LAMONI         MOSUNNY   41  12  30 VRB3      30.15F
DES MOINES     CLOUDY    41   8  25 VRB5      30.17F

$$




USA.gov is the U.S. government's official web portal to all federal, state and local government web resources and services.